Location: Passau
(48.5830°N, 13.4830°E)
Time: 17:19:24
(UTC+02:00)

Transit 2A - All Passes

Search period start: 19 May 2024 00:00
Search period end: 29 May 2024 00:00
Orbit: 594 x 957 km, 66.7° (Epoch: 18 May)

Date Brightness Start Highest point End Pass type
(mag) Time Alt. Az. Time Alt. Az. Time Alt. Az.
19 May - 00:09:42 10° S 00:13:56 38° ESE 00:18:35 10° NE visible
19 May - 01:52:39 10° WSW 01:57:03 38° NW 02:01:55 10° NNE visible
19 May - 03:39:08 10° NW 03:41:48 14° NNW 03:44:35 10° NNE visible
19 May - 05:25:21 10° NNW 05:27:25 12° N 05:29:32 10° NNE daylight
19 May - 07:08:04 10° NNW 07:12:37 24° NE 07:17:27 10° E daylight
19 May - 08:50:45 10° NW 08:56:33 83° NE 09:02:48 10° SE daylight
19 May - 10:34:51 10° WNW 10:39:12 21° WSW 10:43:44 10° SSW daylight
19 May - 23:35:09 10° SSE 23:38:58 26° ESE 23:43:05 10° NE visible
20 May - 01:17:09 10° SW 01:21:44 51° NW 01:26:49 10° NNE visible
20 May - 03:03:03 10° WNW 03:06:11 16° NNW 03:09:30 10° NNE visible
20 May - 04:49:57 10° NNW 04:51:43 11° N 04:53:31 10° NNE daylight
20 May - 06:33:00 10° NNW 06:37:07 20° NNE 06:41:27 10° ENE daylight
20 May - 08:15:36 10° NNW 08:21:19 63° NE 08:27:28 10° SE daylight
20 May - 09:59:11 10° NW 10:04:13 30° WSW 10:09:31 10° S daylight
20 May - 23:01:00 10° SSE 23:04:04 18° ESE 23:07:19 10° ENE visible
21 May - 00:41:48 10° SW 00:46:28 72° NW 00:51:40 10° NNE visible
21 May - 02:27:03 10° WNW 02:30:37 19° NNW 02:34:26 10° NNE visible
21 May - 04:14:18 10° NNW 04:16:00 11° N 04:17:46 10° NNE visible
21 May - 05:57:56 10° NNW 06:01:32 17° NNE 06:05:20 10° ENE daylight
21 May - 07:40:29 10° NNW 07:46:02 48° NE 07:52:00 10° ESE daylight
21 May - 09:23:44 10° NW 09:29:12 41° WSW 09:34:59 10° S daylight
21 May - 22:27:39 10° ESE 22:29:13 12° ESE 22:30:51 10° E visible
22 May - 00:06:38 10° SSW 00:11:17 81° ESE 00:16:27 10° NE visible
22 May - 01:51:10 10° W 01:55:05 24° NNW 01:59:22 10° NNE visible
22 May - 03:38:22 10° NNW 03:40:19 12° N 03:42:18 10° NNE visible
22 May - 05:22:49 10° NNW 05:25:56 15° NNE 05:29:10 10° NE daylight
22 May - 07:05:23 10° NNW 07:10:41 37° NE 07:16:22 10° ESE daylight
22 May - 08:48:23 10° NW 08:54:07 56° WSW 09:00:13 10° SSE daylight
22 May - 10:35:27 10° W 10:36:13 10° W 10:36:59 10° WSW daylight
22 May - 23:31:39 10° SSW 23:36:10 56° ESE 23:41:11 10° NE visible
23 May - 01:15:23 10° W 01:19:38 30° NW 01:24:17 10° NNE visible
23 May - 03:02:18 10° NW 03:04:37 13° NNW 03:07:03 10° NNE visible
23 May - 04:47:40 10° NNW 04:50:17 13° NNE 04:52:58 10° NE daylight
23 May - 06:30:18 10° NNW 06:35:17 30° NE 06:40:36 10° E daylight
23 May - 08:13:08 10° NW 08:18:59 76° WSW 08:25:14 10° SSE daylight
23 May - 09:57:59 10° WNW 10:01:22 15° WSW 10:04:49 10° SW daylight
23 May - 22:56:51 10° S 23:01:07 38° ESE 23:05:49 10° NE visible
24 May - 00:39:45 10° WSW 00:44:13 39° NW 00:49:11 10° NNE visible
24 May - 02:26:11 10° NW 02:28:58 14° NNW 02:31:53 10° NNE visible
24 May - 04:12:25 10° NNW 04:14:35 12° N 04:16:49 10° NNE visible
24 May - 05:55:13 10° NNW 05:59:49 24° NNE 06:04:41 10° E daylight
24 May - 07:37:55 10° NW 07:43:47 82° NE 07:50:04 10° SE daylight
24 May - 09:22:00 10° WNW 09:26:27 22° WSW 09:31:03 10° SSW daylight
24 May - 22:22:19 10° SSE 22:26:08 26° ESE 22:30:17 10° NE visible
25 May - 00:04:16 10° SW 00:08:53 52° NW 00:14:03 10° NNE visible
25 May - 01:50:06 10° WNW 01:53:20 17° NNW 01:56:46 10° NNE visible
25 May - 03:36:59 10° NNW 03:38:53 12° N 03:40:50 10° NNE visible
25 May - 05:20:08 10° NNW 05:24:17 20° NNE 05:28:40 10° ENE daylight
25 May - 07:02:45 10° NNW 07:08:33 62° NE 07:14:43 10° SE daylight
25 May - 08:46:20 10° NW 08:51:27 30° WSW 08:56:48 10° S daylight
25 May - 21:48:09 10° SSE 21:51:14 18° ESE 21:54:30 10° ENE visible
25 May - 23:28:55 10° SW 23:33:37 73° NW 23:38:53 10° NNE visible
26 May - 01:14:06 10° WNW 01:17:45 20° NNW 01:21:41 10° NNE visible
26 May - 03:01:17 10° NNW 03:03:10 12° N 03:05:05 10° NNE visible
26 May - 04:45:02 10° NNW 04:48:43 17° NNE 04:52:34 10° ENE daylight
26 May - 06:27:37 10° NNW 06:33:14 47° NE 06:39:13 10° ESE daylight
26 May - 08:10:53 10° NW 08:16:25 42° WSW 08:22:15 10° S daylight
26 May - 21:14:49 10° ESE 21:16:24 12° ESE 21:18:00 10° E daylight
26 May - 22:53:44 10° SSW 22:58:25 80° ESE 23:03:39 10° NE visible
27 May - 00:38:13 10° W 00:42:14 24° NNW 00:46:36 10° NNE visible
27 May - 02:25:21 10° NNW 02:27:27 12° N 02:29:37 10° NNE visible
27 May - 04:09:55 10° NNW 04:13:05 15° NNE 04:16:23 10° NE visible
27 May - 05:52:32 10° NNW 05:57:52 37° NE 06:03:35 10° ESE daylight
27 May - 07:35:32 10° NW 07:41:19 57° WSW 07:47:27 10° SSE daylight
27 May - 09:22:13 10° W 09:23:25 11° W 09:24:39 10° WSW daylight
27 May - 22:18:44 10° SSW 22:23:18 55° ESE 22:28:23 10° NE visible
28 May - 00:02:27 10° W 00:06:46 30° NW 00:11:30 10° NNE visible
28 May - 01:49:17 10° NW 01:51:45 13° NNW 01:54:20 10° NNE visible
28 May - 03:34:44 10° NNW 03:37:25 13° NNE 03:40:12 10° NE visible
28 May - 05:17:25 10° NNW 05:22:27 30° NE 05:27:48 10° E daylight
28 May - 07:00:16 10° NW 07:06:11 77° WSW 07:12:27 10° SSE daylight
28 May - 08:45:04 10° WNW 08:48:34 16° WSW 08:52:08 10° SW daylight
28 May - 21:43:57 10° S 21:48:16 37° ESE 21:53:00 10° NE visible
28 May - 23:26:48 10° WSW 23:31:21 39° NW 23:36:23 10° NNE visible
